Weather History for Gulf Shores, AL

Change the Weather History Date:

Monday, September 10, 2012

  Actual Average (KPNS) Record (KPNS)
Temperature  
Mean Temperature 72 °F 80 °F  
Max Temperature 84 °F 88 °F 98 °F (1980)
Min Temperature 59 °F 72 °F 61 °F (1956)
Cooling Degree Days 6 15  
Month to date cooling degree days 155  
Year to date cooling degree days 2122  
Growing Degree Days 22 (Base 50)    
Moisture  
Dew Point 59 °F    
Average Humidity 68    
Maximum Humidity 94    
Minimum Humidity 37    
Precipitation  
Precipitation 0.00 in 0.20 in 6.64 in (1944)
Month to date precipitation 2.00  
Year to date precipitation 46.77  
Sea Level Pressure  
Sea Level Pressure 30.05 in    
Wind  
Wind Speed 2 mph (NNE)    
Max Wind Speed 7 mph    
Max Gust Speed -    
Visibility 10 miles    
Events      
T = Trace of Precipitation, MM = Missing Value Source: NWS Daily Summary

Daily Weather History Graph

Daily Weather History Graph

Search for Another Location

Airport:

Trip Planner

Search our weather history database for the weather conditions in past years. The results will help you decide how hot, cold, wet, or windy it might be!

Date:

Astronomy

Sep. 10, 2012 Rise Set
Actual Time 6:32 AM CDT 7:01 PM CDT
Civil Twilight 6:08 AM CDT 7:25 PM CDT
Nautical Twilight 5:40 AM CDT 7:54 PM CDT
Astronomical Twilight 5:11 AM CDT 8:22 PM CDT
Moon 1:11 AM CDT (9/10) 3:14 PM CDT (9/10)
Length of Visible Light 13h 17m
Length of Day
12h 29m
Waning Crescent, 30% of the Moon is Illuminated
Sep 10
Waning Crescent
Sep 15
New
Sep 22
First Quarter
Sep 29
Full
Oct 8
Last Quarter

Hourly Weather History & Observations

Time (CDT) Temp. Heat Index Dew Point Humidity Pressure Visibility Wind Dir Wind Speed Gust Speed Precip Events Conditions
12:15 AM 64.4 °F - 60.8 °F 88% 30.03 in 10.0 mi Calm Calm - N/A   Clear
12:35 AM 64.4 °F - 60.8 °F 88% 30.03 in 10.0 mi Calm Calm - N/A   Clear
12:55 AM 64.4 °F - 59.0 °F 83% 30.03 in 10.0 mi North 3.5 mph - N/A   Clear
1:15 AM 64.4 °F - 59.0 °F 83% 30.03 in 10.0 mi North 3.5 mph - N/A   Clear
1:35 AM 64.4 °F - 59.0 °F 83% 30.03 in 10.0 mi Calm Calm - N/A   Clear
1:55 AM 64.4 °F - 59.0 °F 83% 30.03 in 10.0 mi Calm Calm - N/A   Clear
2:15 AM 64.4 °F - 59.0 °F 83% 30.03 in 10.0 mi Calm Calm - N/A   Clear
2:35 AM 64.4 °F - 59.0 °F 83% 30.03 in 10.0 mi Calm Calm - N/A   Clear
2:55 AM 64.4 °F - 59.0 °F 83% 30.02 in 10.0 mi Calm Calm - N/A   Clear
3:15 AM 62.6 °F - 59.0 °F 88% 30.03 in 10.0 mi North 3.5 mph - N/A   Clear
3:35 AM 62.6 °F - 59.0 °F 88% 30.02 in 10.0 mi North 4.6 mph - N/A   Clear
3:55 AM 62.6 °F - 59.0 °F 88% 30.03 in 10.0 mi North 4.6 mph - N/A   Clear
4:15 AM 62.6 °F - 59.0 °F 88% 30.02 in 10.0 mi North 4.6 mph - N/A   Clear
4:35 AM 62.6 °F - 59.0 °F 88% 30.02 in 10.0 mi NNE 3.5 mph - N/A   Clear
4:55 AM 62.6 °F - 59.0 °F 88% 30.03 in 10.0 mi NNE 3.5 mph - N/A   Clear
5:15 AM 62.6 °F - 59.0 °F 88% 30.03 in 10.0 mi NNE 3.5 mph - N/A   Clear
5:35 AM 62.6 °F - 59.0 °F 88% 30.03 in 10.0 mi NNE 3.5 mph - N/A   Clear
5:55 AM 62.6 °F - 57.2 °F 82% 30.03 in 10.0 mi Calm Calm - N/A   Clear
6:15 AM 60.8 °F - 57.2 °F 88% 30.04 in 10.0 mi Calm Calm - N/A   Clear
6:35 AM 59.0 °F - 57.2 °F 94% 30.05 in 10.0 mi Calm Calm - N/A   Clear
6:55 AM 60.8 °F - 59.0 °F 94% 30.06 in 10.0 mi Calm Calm - N/A   Clear
7:15 AM 62.6 °F - 59.0 °F 88% 30.06 in 10.0 mi Calm Calm - N/A   Clear
7:35 AM 62.6 °F - 59.0 °F 88% 30.07 in 10.0 mi NNE 3.5 mph - N/A   Clear
7:55 AM 64.4 °F - 59.0 °F 83% 30.07 in 10.0 mi North 3.5 mph - N/A   Clear
8:15 AM 68.0 °F - 59.0 °F 73% 30.07 in 10.0 mi NNE 4.6 mph - N/A   Clear
8:35 AM 68.0 °F - 59.0 °F 73% 30.07 in 10.0 mi NNE 4.6 mph - N/A   Clear
8:55 AM 71.6 °F - 60.8 °F 69% 30.07 in 10.0 mi NE 3.5 mph - N/A   Clear
9:15 AM 73.4 °F - 60.8 °F 65% 30.07 in 10.0 mi NNE 6.9 mph - N/A   Clear
9:35 AM 73.4 °F - 59.0 °F 61% 30.07 in 10.0 mi NNE 5.8 mph - N/A   Clear
9:55 AM 77.0 °F - 59.0 °F 54% 30.08 in 10.0 mi NE 5.8 mph - N/A   Clear
10:15 AM 77.0 °F - 59.0 °F 54% 30.08 in 10.0 mi ENE 5.8 mph - N/A   Clear
10:35 AM 78.8 °F - 59.0 °F 51% 30.08 in 10.0 mi ENE 4.6 mph - N/A   Clear
10:55 AM 80.6 °F 81.1 °F 59.0 °F 48% 30.08 in 10.0 mi NE 4.6 mph - N/A   Clear
11:15 AM 80.6 °F 80.8 °F 57.2 °F 45% 30.09 in 10.0 mi Calm Calm - N/A   Clear
11:35 AM 82.4 °F 82.5 °F 59.0 °F 45% 30.09 in 10.0 mi North 4.6 mph - N/A   Clear
11:55 AM 80.6 °F 80.5 °F 55.4 °F 42% 30.08 in 10.0 mi North 3.5 mph - N/A   Clear
12:15 PM 82.4 °F 81.7 °F 55.4 °F 39% 30.07 in 10.0 mi Calm Calm - N/A   Clear
12:35 PM 82.4 °F 81.7 °F 55.4 °F 39% 30.07 in 10.0 mi NNE 5.8 mph - N/A   Clear
1:15 PM 82.4 °F 82.0 °F 57.2 °F 42% 30.06 in 10.0 mi NNE 3.5 mph - N/A   Clear
1:35 PM 82.4 °F 81.7 °F 55.4 °F 39% 30.05 in 10.0 mi Calm Calm - N/A   Clear
2:15 PM 84.2 °F 83.0 °F 55.4 °F 37% 30.04 in 10.0 mi NNE 3.5 mph - N/A   Clear
2:35 PM 84.2 °F 83.0 °F 55.4 °F 37% 30.03 in 10.0 mi NNE 4.6 mph - N/A   Clear
2:55 PM 82.4 °F 82.9 °F 60.8 °F 48% 30.03 in 10.0 mi South 6.9 mph - N/A   Scattered Clouds
3:15 PM 80.6 °F 81.5 °F 60.8 °F 51% 30.03 in 10.0 mi South 5.8 mph - N/A   Scattered Clouds
3:35 PM 82.4 °F 82.9 °F 60.8 °F 48% 30.03 in 10.0 mi South 6.9 mph - N/A   Clear
3:55 PM 82.4 °F 82.9 °F 60.8 °F 48% 30.03 in 10.0 mi South 6.9 mph - N/A   Clear
4:35 PM 80.6 °F 81.5 °F 60.8 °F 51% 30.03 in 10.0 mi SSW 3.5 mph - N/A   Clear
5:55 PM 80.6 °F 81.5 °F 60.8 °F 51% 30.04 in 10.0 mi South 5.8 mph - N/A   Clear
6:15 PM 78.8 °F - 60.8 °F 54% 30.05 in 10.0 mi South 5.8 mph - N/A   Clear
6:35 PM 78.8 °F - 60.8 °F 54% 30.05 in 10.0 mi Calm Calm - N/A   Clear
6:55 PM 77.0 °F - 60.8 °F 57% 30.05 in 10.0 mi Calm Calm - N/A   Clear
7:15 PM 75.2 °F - 62.6 °F 65% 30.05 in 10.0 mi Calm Calm - N/A   Clear
7:35 PM 73.4 °F - 62.6 °F 69% 30.05 in 10.0 mi Calm Calm - N/A   Clear
7:55 PM 69.8 °F - 64.4 °F 83% 30.05 in 10.0 mi Calm Calm - N/A   Clear
8:15 PM 71.6 °F - 64.4 °F 78% 30.06 in 10.0 mi Calm Calm - N/A   Clear
11:55 PM 68.0 °F - 62.6 °F 83% 30.07 in 10.0 mi Calm Calm - N/A   Clear